AL3A Weather Reports


Display with metric or nautical units.
time (UTC)temp
F
wind
direction
speed
MPH
gust
MPH
rain 1hr
in
rain 24hr
in
rain mn
in
humidity
%
barometer
mb
20260508195517 73 270 3.0 14.0 0.00 0.00 0.00 19 1023.8
20260508194516 73 293 9.0 17.0 0.00 0.00 0.00 18 1023.8
20260508193537 74 248 7.0 21.0 0.00 0.00 0.00 17 1023.8
20260508192516 74 248 8.0 16.0 0.00 0.00 0.00 18 1023.7
20260508191537 73 225 2.0 8.0 0.00 0.00 0.00 19 1023.9
20260508190516 72 293 4.0 19.0 0.00 0.00 0.00 20 1024.6
20260508185516 72 270 4.0 11.0 0.00 0.00 0.00 20 1024.7
20260508184516 71 23 2.0 4.0 0.00 0.00 0.00 20 1024.3
20260508183516 71 23 4.0 12.0 0.00 0.00 0.00 21 1025.0
20260508182516 71 270 8.0 17.0 0.00 0.00 0.00 19 1025.0
20260508181516 70 293 2.0 12.0 0.00 0.00 0.00 21 1024.8
20260508180536 71 293 6.0 18.0 0.00 0.00 0.00 21 1025.5
20260508175536 71 248 2.0 8.0 0.00 0.00 0.00 21 1025.7
20260508174516 70 270 1.0 7.0 0.00 0.00 0.00 22 1025.4
20260508173516 70 270 2.0 9.0 0.00 0.00 0.00 22 1026.0
20260508172517 69 270 3.0 9.0 0.00 0.00 0.00 22 1025.8
20260508171516 69 293 3.0 13.0 0.00 0.00 0.00 24 1026.1
20260508170536 69 0 3.0 10.0 0.00 0.00 0.00 23 1026.6
20260508165516 68 293 1.0 3.0 0.00 0.00 0.00 23 1026.7
20260508164516 68 293 3.0 11.0 0.00 0.00 0.00 24 1026.9
20260508163516 68 293 2.0 8.0 0.00 0.00 0.00 24 1027.4
20260508162516 67 270 8.0 15.0 0.00 0.00 0.00 23 1027.5
20260508161536 66 293 3.0 12.0 0.00 0.00 0.00 23 1027.1
20260508160516 66 293 3.0 10.0 0.00 0.00 0.00 23 1028.4
20260508155657 67 293 4.0 12.0 0.00 0.00 0.00 24 1028.4
20260508154516 66 270 2.0 5.0 0.00 0.00 0.00 24 1028.3
20260508153516 66 270 2.0 8.0 0.00 0.00 0.00 25 1029.3
20260508152516 65 270 1.0 4.0 0.00 0.00 0.00 26 1028.9
20260508151516 64 293 2.0 11.0 0.00 0.00 0.00 27 1029.0
20260508150516 61 0.0 2.0 0.00 0.00 0.00 31 1028.3
20260508145516 57 0.0 2.0 0.00 0.00 0.00 36 1028.9
20260508144516 53 0.0 1.0 0.00 0.00 0.00 47 1028.2
20260508143516 50 0.0 0.0 0.00 0.00 0.00 47 1027.3
20260508142516 49 0.0 0.0 0.00 0.00 0.00 47 1028.8
20260508141516 46 0.0 0.0 0.00 0.00 0.00 49 1027.8
20260508140516 42 0.0 0.0 0.00 0.00 0.00 50 1026.9
20260508135517 39 0.0 0.0 0.00 0.00 0.00 51 1027.3
20260508134516 37 0.0 2.0 0.00 0.00 0.00 53 1026.7
20260508133536 35 0.0 2.0 0.00 0.00 0.00 56 1026.2
20260508132516 34 0.0 0.0 0.00 0.00 0.00 54 1025.8
20260508131516 32 0.0 0.0 0.00 0.00 0.00 57 1025.3
20260508130516 30 0.0 0.0 0.00 0.00 0.00 59 1024.6
20260508125516 29 0.0 1.0 0.00 0.00 0.00 61 1024.5
20260508124516 27 0.0 0.0 0.00 0.00 0.00 63 1023.9
20260508123516 27 0.0 0.0 0.00 0.00 0.00 62 1023.9
20260508122516 27 0.0 0.0 0.00 0.00 0.00 62 1023.8
20260508121536 27 0.0 0.0 0.00 0.00 0.00 61 1023.8
20260508120515 28 0.0 0.0 0.00 0.00 0.00 60 1024.2
20260508115515 28 0.0 1.0 0.00 0.00 0.00 59 1024.2
20260508114515 28 0.0 1.0 0.00 0.00 0.00 58 1024.1
20260508113515 28 0.0 0.0 0.00 0.00 0.00 60 1024.1
20260508112516 28 0.0 0.0 0.00 0.00 0.00 59 1024.0
20260508111515 27 0.0 0.0 0.00 0.00 0.00 59 1024.0
20260508110602 27 0.0 0.0 0.00 0.00 0.00 58 1024.0
20260508110015 27 0.0 0.0 0.00 0.00 0.00 59 1024.0
20260508105015 27 0.0 0.0 0.00 0.00 0.00 57 1024.0
20260508104015 27 0.0 0.0 0.00 0.00 0.00 58 1024.0
20260508103015 27 0.0 0.0 0.00 0.00 0.00 57 1023.5
20260508102015 27 0.0 0.0 0.00 0.00 0.00 58 1023.4
20260508101016 28 0.0 0.0 0.00 0.00 0.00 57 1023.9
20260508100015 28 0.0 0.0 0.00 0.00 0.00 57 1023.9
20260508095015 28 0.0 0.0 0.00 0.00 0.00 57 1023.9
20260508094015 28 0.0 0.0 0.00 0.00 0.00 56 1023.9
20260508093015 28 0.0 0.0 0.00 0.00 0.00 56 1023.3
20260508092016 28 0.0 0.0 0.00 0.00 0.00 57 1023.5
20260508091015 29 0.0 0.0 0.00 0.00 0.00 56 1023.6
20260508090015 29 0.0 0.0 0.00 0.00 0.00 54 1023.7
20260508085017 29 0.0 0.0 0.00 0.00 0.00 53 1023.7
20260508084017 30 0.0 0.0 0.00 0.00 0.00 53 1023.9
20260508083017 30 0.0 0.0 0.00 0.00 0.00 54 1024.5
20260508082017 30 0.0 0.0 0.00 0.00 0.00 52 1024.5
20260508081017 31 0.0 0.0 0.00 0.00 0.00 51 1024.6
20260508080017 32 0.0 0.0 0.00 0.00 0.00 51 1024.2
20260508075017 32 0.0 0.0 0.00 0.00 0.00 50 1024.2
20260508074017 31 0.0 0.0 0.00 0.00 0.00 52 1024.3
20260508073017 31 0.0 0.0 0.00 0.00 0.00 52 1023.8
20260508072017 31 0.0 0.0 0.00 0.00 0.00 51 1023.9
20260508071017 32 0.0 0.0 0.00 0.00 0.00 52 1024.2
20260508070017 33 0.0 0.0 0.00 0.00 0.00 50 1024.2
20260508065036 33 0.0 0.0 0.00 0.00 0.00 48 1024.1
20260508064016 33 0.0 0.0 0.00 0.00 0.00 47 1024.1
20260508063016 35 0.0 0.0 0.00 0.00 0.00 46 1024.5
20260508062036 35 0.0 0.0 0.00 0.00 0.00 45 1024.6
20260508060036 35 0.0 0.0 0.00 0.00 0.00 44 1024.6
20260508055016 36 0.0 0.0 0.00 0.00 0.00 45 1025.2
20260508054036 36 0.0 0.0 0.00 0.00 0.00 44 1025.2
20260508053015 37 0.0 0.0 0.00 0.00 0.00 44 1024.7
20260508052036 38 0.0 0.0 0.00 0.00 0.00 42 1024.8
20260508051015 39 0.0 0.0 0.00 0.00 0.00 40 1025.2
20260508050056 40 0.0 0.0 0.00 0.00 0.00 40 1024.8
20260508045015 41 0.0 0.0 0.00 0.00 0.00 38 1024.9
20260508044016 41 0.0 0.0 0.00 0.00 0.00 38 1024.9
20260508043016 42 0.0 0.0 0.00 0.00 0.00 38 1025.3
20260508042016 43 0.0 0.0 0.00 0.00 0.00 36 1025.2
20260508041016 45 0.0 0.0 0.00 0.00 0.00 34 1025.8
20260508040015 45 0.0 0.0 0.00 0.00 0.00 34 1025.2
20260508035016 47 0.0 0.0 0.00 0.00 0.00 32 1025.1
20260508034035 48 0.0 0.0 0.00 0.00 0.00 29 1025.3
20260508033015 49 0.0 0.0 0.00 0.00 0.00 31 1024.3
20260508032035 50 0.0 1.0 0.00 0.00 0.00 30 1024.7
20260508031036 51 0.0 1.0 0.00 0.00 0.00 27 1024.5
20260508030015 53 0.0 2.0 0.00 0.00 0.00 26 1023.4
20260508025015 54 0.0 2.0 0.00 0.00 0.00 24 1023.8
20260508024015 56 0.0 1.0 0.00 0.00 0.00 25 1024.1
20260508023017 58 0.0 2.0 0.00 0.00 0.00 19 1022.3
20260508022037 59 0.0 1.0 0.00 0.00 0.00 19 1022.6
20260508021037 62 0.0 1.0 0.00 0.00 0.00 19 1023.6
20260508020017 64 0.0 1.0 0.00 0.00 0.00 17 1021.9
20260508015017 66 0.0 0.0 0.00 0.00 0.00 18 1022.5
20260508014017 66 0.0 2.0 0.00 0.00 0.00 16 1022.3
20260508013017 68 0.0 2.0 0.00 0.00 0.00 14 1021.6
20260508012018 68 203 1.0 6.0 0.00 0.00 0.00 13 1021.5
20260508011038 68 0.0 3.0 0.00 0.00 0.00 15 1021.5
20260508010017 67 0.0 2.0 0.00 0.00 0.00 14 1021.0
20260508005037 68 68 1.0 5.0 0.00 0.00 0.00 13 1021.3
20260508004017 69 0.0 2.0 0.00 0.00 0.00 14 1021.4
20260508003017 68 225 1.0 2.0 0.00 0.00 0.00 13 1021.2
20260508002017 68 68 1.0 4.0 0.00 0.00 0.00 14 1021.3
20260508001017 68 68 1.0 3.0 0.00 0.00 0.00 16 1021.2
20260508000017 69 68 1.0 5.0 0.00 0.00 0.00 15 1021.2
20260507235017 69 0.0 2.0 0.00 0.00 0.00 16 1021.8
20260507234017 69 203 1.0 6.0 0.00 0.00 0.00 15 1021.7
20260507233057 68 0.0 4.0 0.00 0.00 0.00 16 1021.7
20260507232017 68 68 2.0 5.0 0.00 0.00 0.00 16 1021.8
20260507231017 71 0.0 4.0 0.00 0.00 0.00 17 1022.3
20260507230017 69 203 1.0 8.0 0.00 0.00 0.00 16 1021.7
20260507225017 67 68 1.0 5.0 0.00 0.00 0.00 17 1021.3
20260507224017 68 68 1.0 5.0 0.00 0.00 0.00 18 1022.0
20260507223017 70 68 1.0 4.0 0.00 0.00 0.00 17 1022.6
20260507222037 70 270 1.0 8.0 0.00 0.00 0.00 17 1022.6
20260507221017 69 293 1.0 3.0 0.00 0.00 0.00 19 1022.3
20260507220017 69 0.0 2.0 0.00 0.00 0.00 21 1022.7
20260507215017 67 90 1.0 3.0 0.00 0.00 0.00 19 1022.8
20260507214017 67 0.0 2.0 0.00 0.00 0.00 18 1023.0
20260507213037 68 0.0 3.0 0.00 0.00 0.00 21 1023.7
20260507212016 66 23 1.0 4.0 0.00 0.00 0.00 20 1023.4
20260507211037 66 45 1.0 4.0 0.00 0.00 0.00 21 1023.5
20260507210016 66 68 3.0 11.0 0.00 0.00 0.00 18 1023.6
20260507205017 66 68 1.0 5.0 0.00 0.00 0.00 22 1023.7
20260507204057 65 68 3.0 13.0 0.00 0.00 0.00 19 1023.3
20260507203016 65 68 2.0 11.0 0.00 0.00 0.00 21 1023.9
20260507202137 65 68 2.0 11.0 0.00 0.00 0.00 20 1023.5
20260507201017 64 68 1.0 6.0 0.00 0.00 0.00 21 1023.5